User: anonymous   Login
Location: Lecco
(45.8566°N, 9.3977°E)
Time: 20:22:17
(UTC+02:00)
Language:

SR - Orbit

View from above orbital plane
View from above orbital plane
View from above satellite
View from above satellite

Ground track
Ground track

The orbit data is extracted from the following two-line orbital elements,

1 00046U 60007B   21162.71152619 -.00000017  00000-0  19735-4 0  9995
2 00046  66.6886 155.7058 0215536 224.8538 133.4977 14.49406541191178
Epoch (UTC): 11 June 2021 17:04:35
Eccentricity: 0.0215536
inclination: 66.6886°
perigee height: 574 km
apogee height: 881 km
right ascension of ascending node: 155.7058°
argument of perigee: 224.8538°
revolutions per day: 14.49406541
mean anomaly at epoch: 133.4977°
orbit number at epoch: 19117

The dashed part of the orbit path shows where the satellite is in the earth's shadow,  

DLR